| time (UTC) | temp F | wind direction | speed MPH | gust MPH | rain 1hr in | rain 24hr in | rain mn in | humidity % | barometer mb |
| 20260509011820 | 57 | 74 | 0.0 | 3.0 | 0.00 | 0.00 | 0.00 | 69 | 1035.0 |
| 20260509010318 | 58 | 98 | 1.0 | 3.0 | 0.00 | 0.00 | 0.00 | 67 | 1034.5 |
| 20260509004813 | 58 | 90 | 0.0 | 2.0 | 0.00 | 0.00 | 0.00 | 64 | 1034.6 |
| 20260509003312 | 59 | 98 | 0.0 | 3.0 | 0.00 | 0.00 | 0.00 | 62 | 1034.3 |
| 20260509001809 | 60 | 100 | 3.0 | 5.0 | 0.00 | 0.00 | 0.00 | 60 | 1034.9 |
| 20260509000306 | 60 | 86 | 5.0 | 5.0 | 0.00 | 0.00 | 0.00 | 59 | 1034.9 |
| 20260508234802 | 61 | 90 | 2.0 | 4.0 | 0.00 | 0.00 | 0.00 | 57 | 1034.9 |
| 20260508233302 | 61 | 127 | 2.0 | 3.0 | 0.00 | 0.00 | 0.00 | 55 | 1035.0 |
| 20260508231759 | 62 | 124 | 0.0 | 10.0 | 0.00 | 0.00 | 0.00 | 54 | 1035.4 |
| 20260508230259 | 62 | 135 | 0.0 | 8.0 | 0.00 | 0.00 | 0.00 | 52 | 1035.2 |
| 20260508224757 | 61 | 96 | 6.0 | 10.0 | 0.00 | 0.00 | 0.00 | 51 | 1035.2 |
| 20260508223255 | 63 | 90 | 2.0 | 6.0 | 0.00 | 0.00 | 0.00 | 47 | 1035.2 |
| 20260508221751 | 63 | 75 | 2.0 | 10.0 | 0.00 | 0.00 | 0.00 | 46 | 1035.3 |
| 20260508220246 | 63 | 68 | 4.0 | 7.0 | 0.00 | 0.00 | 0.00 | 45 | 1035.3 |
| 20260508214742 | 62 | 54 | 0.0 | 6.0 | 0.00 | 0.00 | 0.00 | 44 | 1035.4 |
| 20260508213238 | 63 | 93 | 3.0 | 5.0 | 0.00 | 0.00 | 0.00 | 42 | 1035.4 |
| 20260508211738 | 63 | 109 | 2.0 | 10.0 | 0.00 | 0.00 | 0.00 | 39 | 1035.7 |
| 20260508210235 | 63 | 108 | 4.0 | 9.0 | 0.00 | 0.00 | 0.00 | 37 | 1035.8 |
| 20260508204730 | 64 | 77 | 3.0 | 8.0 | 0.00 | 0.00 | 0.00 | 39 | 1036.0 |
| 20260508203225 | 62 | 151 | 1.0 | 7.0 | 0.00 | 0.00 | 0.00 | 39 | 1036.1 |
| 20260508201721 | 64 | 65 | 2.0 | 13.0 | 0.00 | 0.00 | 0.00 | 39 | 1036.3 |
| 20260508200216 | 64 | 130 | 4.0 | 5.0 | 0.00 | 0.00 | 0.00 | 38 | 1036.5 |
| 20260508194712 | 64 | 50 | 4.0 | 7.0 | 0.00 | 0.00 | 0.00 | 38 | 1036.8 |
| 20260508193208 | 65 | 101 | 3.0 | 3.0 | 0.00 | 0.00 | 0.00 | 40 | 1037.0 |
| 20260508191705 | 65 | 339 | 2.0 | 5.0 | 0.00 | 0.00 | 0.00 | 32 | 1037.0 |
| 20260508190200 | 64 | 258 | 2.0 | 4.0 | 0.00 | 0.00 | 0.00 | 35 | 1037.2 |
| 20260508184658 | 65 | 143 | 0.0 | 7.0 | 0.00 | 0.00 | 0.00 | 34 | 1037.8 |
| 20260508183153 | 65 | 227 | 3.0 | 3.0 | 0.00 | 0.00 | 0.00 | 36 | 1037.8 |
| 20260508181654 | 63 | 173 | 3.0 | 9.0 | 0.00 | 0.00 | 0.00 | 36 | 1038.0 |
| 20260508180150 | 63 | 278 | 0.0 | 6.0 | 0.00 | 0.00 | 0.00 | 38 | 1038.0 |
| 20260508174648 | 63 | 270 | 3.0 | 4.0 | 0.00 | 0.00 | 0.00 | 39 | 1038.3 |
| 20260508173143 | 63 | 110 | 0.0 | 4.0 | 0.00 | 0.00 | 0.00 | 39 | 1038.4 |
| 20260508171639 | 61 | 183 | 3.0 | 7.0 | 0.00 | 0.00 | 0.00 | 37 | 1038.6 |
| 20260508170136 | 63 | 225 | 3.0 | 3.0 | 0.00 | 0.00 | 0.00 | 35 | 1039.1 |
| 20260508164632 | 61 | 52 | 2.0 | 6.0 | 0.00 | 0.00 | 0.00 | 36 | 1039.2 |
| 20260508163130 | 60 | 213 | 5.0 | 7.0 | 0.00 | 0.00 | 0.00 | 37 | 1039.6 |
| 20260508161625 | 61 | 84 | 0.0 | 4.0 | 0.00 | 0.00 | 0.00 | 37 | 1039.7 |
| 20260508160124 | 59 | 213 | 2.0 | 2.0 | 0.00 | 0.00 | 0.00 | 38 | 1039.9 |
| 20260508154621 | 61 | 69 | 3.0 | 5.0 | 0.00 | 0.00 | 0.00 | 40 | 1039.8 |
| 20260508153117 | 59 | 145 | 0.0 | 6.0 | 0.00 | 0.00 | 0.00 | 42 | 1039.8 |
| 20260508151612 | 59 | 94 | 3.0 | 5.0 | 0.00 | 0.00 | 0.00 | 46 | 1040.2 |
| 20260508150108 | 58 | 85 | 2.0 | 3.0 | 0.00 | 0.00 | 0.00 | 47 | 1040.0 |
| 20260508144605 | 57 | 243 | 0.0 | 5.0 | 0.00 | 0.00 | 0.00 | 54 | 1040.1 |
| 20260508143102 | 57 | 114 | 2.0 | 5.0 | 0.00 | 0.00 | 0.00 | 58 | 1040.2 |
| 20260508141558 | 56 | 83 | 3.0 | 5.0 | 0.00 | 0.00 | 0.00 | 63 | 1040.2 |
| 20260508140055 | 56 | 119 | 0.0 | 4.0 | 0.00 | 0.00 | 0.00 | 64 | 1040.1 |
| 20260508134555 | 56 | 120 | 1.0 | 3.0 | 0.00 | 0.00 | 0.00 | 66 | 1040.2 |
| 20260508133053 | 55 | 75 | 3.0 | 3.0 | 0.00 | 0.00 | 0.00 | 69 | 1040.4 |
| 20260508131548 | 54 | 103 | 1.0 | 3.0 | 0.00 | 0.00 | 0.00 | 71 | 1040.3 |
| 20260508130044 | 53 | 68 | 0.0 | 2.0 | 0.00 | 0.00 | 0.00 | 74 | 1040.4 |
| 20260508124542 | 48 | 84 | 2.0 | 3.0 | 0.00 | 0.00 | 0.00 | 93 | 1040.5 |
| 20260508123039 | 45 | 97 | 0.0 | 2.0 | 0.00 | 0.00 | 0.00 | 97 | 1040.4 |
| 20260508121536 | 43 | 15 | 0.0 | 1.0 | 0.00 | 0.00 | 0.00 | 97 | 1040.5 |
| 20260508120035 | 41 | 90 | 0.0 | 1.0 | 0.00 | 0.00 | 0.00 | 98 | 1040.4 |
| 20260508114531 | 42 | 74 | 0.0 | 0.0 | 0.00 | 0.00 | 0.00 | 97 | 1040.3 |
| 20260508113028 | 36 | 106 | 0.0 | 0.0 | 0.00 | 0.00 | 0.00 | 98 | 1040.0 |
| 20260508111524 | 34 | 180 | 0.0 | 1.0 | 0.00 | 0.00 | 0.00 | 98 | 1040.4 |
| 20260508110020 | 34 | 106 | 0.0 | 1.0 | 0.00 | 0.00 | 0.00 | 98 | 1040.2 |
| 20260508104517 | 34 | 157 | 0.0 | 0.0 | 0.00 | 0.00 | 0.00 | 98 | 1040.2 |
| 20260508103013 | 34 | 187 | 0.0 | 1.0 | 0.00 | 0.00 | 0.00 | 98 | 1040.3 |
| 20260508101511 | 34 | 82 | 0.0 | 0.0 | 0.00 | 0.00 | 0.00 | 98 | 1040.2 |
| 20260508100009 | 34 | 106 | 0.0 | 0.0 | 0.00 | 0.00 | 0.00 | 97 | 1040.1 |
| 20260508094506 | 35 | 120 | 0.0 | 0.0 | 0.00 | 0.00 | 0.00 | 97 | 1040.2 |
| 20260508093003 | 35 | 106 | 0.0 | 1.0 | 0.00 | 0.00 | 0.00 | 97 | 1040.1 |
| 20260508091501 | 35 | 105 | 1.0 | 1.0 | 0.00 | 0.00 | 0.00 | 97 | 1040.3 |
| 20260508085959 | 35 | 90 | 0.0 | 1.0 | 0.00 | 0.00 | 0.00 | 97 | 1040.3 |
| 20260508084454 | 35 | 114 | 1.0 | 1.0 | 0.00 | 0.00 | 0.00 | 97 | 1040.3 |
| 20260508082950 | 36 | 106 | 0.0 | 0.0 | 0.00 | 0.00 | 0.00 | 97 | 1040.4 |
| 20260508081447 | 36 | 114 | 0.0 | 1.0 | 0.00 | 0.00 | 0.00 | 97 | 1040.6 |
| 20260508075944 | 37 | 157 | 1.0 | 2.0 | 0.00 | 0.00 | 0.00 | 97 | 1040.6 |
| 20260508074443 | 37 | 74 | 0.0 | 0.0 | 0.00 | 0.00 | 0.00 | 96 | 1040.6 |
| 20260508072939 | 38 | 114 | 0.0 | 1.0 | 0.00 | 0.00 | 0.00 | 96 | 1040.7 |
| 20260508071437 | 39 | 105 | 0.0 | 1.0 | 0.00 | 0.00 | 0.00 | 96 | 1041.0 |
| 20260508065935 | 38 | 140 | 0.0 | 1.0 | 0.00 | 0.00 | 0.00 | 96 | 1041.1 |
| 20260508064433 | 38 | 114 | 0.0 | 1.0 | 0.00 | 0.00 | 0.00 | 96 | 1041.0 |
| 20260508062931 | 38 | 114 | 0.0 | 0.0 | 0.00 | 0.00 | 0.00 | 96 | 1041.1 |
| 20260508061430 | 39 | 168 | 1.0 | 2.0 | 0.00 | 0.00 | 0.00 | 96 | 1041.1 |
| 20260508055925 | 39 | 103 | 0.0 | 1.0 | 0.00 | 0.00 | 0.00 | 95 | 1041.2 |
| 20260508054422 | 38 | 23 | 0.0 | 1.0 | 0.00 | 0.00 | 0.00 | 95 | 1040.9 |
| 20260508052919 | 38 | 109 | 0.0 | 0.0 | 0.00 | 0.00 | 0.00 | 95 | 1041.0 |
| 20260508051414 | 38 | 7 | 0.0 | 0.0 | 0.00 | 0.00 | 0.00 | 94 | 1040.9 |
| 20260508045909 | 39 | 101 | 2.0 | 2.0 | 0.00 | 0.01 | 0.01 | 94 | 1040.7 |
| 20260508044407 | 40 | 112 | 2.0 | 3.0 | 0.00 | 0.01 | 0.01 | 94 | 1040.7 |
| 20260508042908 | 39 | 15 | 0.0 | 0.0 | 0.00 | 0.01 | 0.01 | 93 | 1040.5 |
| 20260508041405 | 40 | 90 | 2.0 | 2.0 | 0.00 | 0.01 | 0.01 | 92 | 1040.6 |
| 20260508035902 | 41 | 60 | 0.0 | 3.0 | 0.00 | 0.01 | 0.01 | 92 | 1040.5 |
| 20260508034359 | 41 | 114 | 0.0 | 2.0 | 0.00 | 0.01 | 0.01 | 91 | 1040.4 |
| 20260508032857 | 41 | 53 | 0.0 | 1.0 | 0.00 | 0.01 | 0.01 | 90 | 1040.1 |
| 20260508031354 | 42 | 75 | 0.0 | 2.0 | 0.00 | 0.01 | 0.01 | 90 | 1040.4 |
| 20260508025850 | 42 | 23 | 0.0 | 2.0 | 0.00 | 0.01 | 0.01 | 89 | 1040.1 |
| 20260508024346 | 42 | 106 | 0.0 | 0.0 | 0.00 | 0.01 | 0.01 | 88 | 1040.0 |
| 20260508022842 | 43 | 12 | 0.0 | 2.0 | 0.00 | 0.01 | 0.01 | 87 | 1040.1 |
| 20260508021337 | 44 | 90 | 0.0 | 1.0 | 0.00 | 0.01 | 0.01 | 85 | 1039.7 |
| 20260508015834 | 45 | 115 | 0.0 | 2.0 | 0.00 | 0.01 | 0.01 | 85 | 1039.5 |
| 20260508014331 | 45 | 105 | 0.0 | 1.0 | 0.00 | 0.01 | 0.01 | 84 | 1039.4 |